Location: Newark
(43.0000°N, 1.6781°W)
Time: 10:31:38
(UTC+00:00)

Explorer 7 - Pass Details

Date: 27 April 2021
Orbit: 484 x 677 km, 50.3° (Epoch: 07 May)

Event Time Altitude Azimuth Distance (km) Brightness Sun altitude
Rises 16:02:40 0° 200° (SSW) 2,533 10.6 31.7°
Reaches altitude 10° 16:05:12 10° 182° (S) 1,668 9.5 31.2°
Maximum altitude 16:08:00 20° 134° (SE) 1,191 8.4 30.7°
Drops below altitude 10° 16:10:53 10° 86° (E) 1,720 8.9 30.2°
Sets 16:13:32 0° 69° (ENE) 2,641 9.8 29.7°
